Weather History for Homer, AK

Change the Weather History Date:

Saturday, June 28, 2014

  Actual Average Record
Temperature  
Mean Temperature 56 °F -  
Max Temperature 66 °F 58 °F 75 °F (2001)
Min Temperature 46 °F 43 °F -3 °F (1971)
Degree Days  
Heating Degree Days 9    
Growing Degree Days 6 (Base 50)    
Moisture  
Dew Point 46 °F    
Average Humidity 70    
Maximum Humidity 86    
Minimum Humidity 48    
Precipitation  
Precipitation 0.00 in - - ()
Sea Level Pressure  
Sea Level Pressure 29.79 in    
Wind  
Wind Speed 5 mph (SW)    
Max Wind Speed 16 mph    
Max Gust Speed -    
Visibility 10 miles    
Events Fog    
Averages and records for this station are not official NWS values.
T = Trace of Precipitation, MM = Missing Value Source: NWS Daily Summary

Daily Weather History Graph

Daily Weather History Graph

Search for Another Location

Airport:

Trip Planner

Search our weather history database for the weather conditions in past years. The results will help you decide how hot, cold, wet, or windy it might be!

Date:

Astronomy

Jun. 28, 2014 Rise Set
Actual Time 4:49 AM AKDT 11:28 PM AKDT
Civil Twilight 3:14 AM AKDT 1:02 AM AKDT
Nautical Twilight Sun does not rise Sun does not rise
Astronomical Twilight Sun does not rise Sun does not rise
Moon 7:04 AM AKDT (6/28) 11:29 PM AKDT (6/28)
Length of Visible Light 21h 47m
Length of Day
18h 39m
New Moon, 2% of the Moon is Illuminated
Jun 28
New Moon
Jul 5
First Quarter
Jul 12
Full
Jul 18
Last Quarter
Jul 26
New

Hourly Weather History & Observations

Time (AKDT) Temp. Dew Point Humidity Pressure Visibility Wind Dir Wind Speed Gust Speed Precip Events Conditions
12:53 AM 51.1 °F 45.0 °F 80% 29.75 in 10.0 mi NE 3.5 mph - N/A   Overcast
1:53 AM 50.0 °F 46.0 °F 86% 29.76 in 10.0 mi NE 4.6 mph - N/A   Overcast
2:53 AM 51.1 °F 45.0 °F 80% 29.76 in 10.0 mi NNE 3.5 mph - N/A   Clear
3:53 AM 50.0 °F 45.0 °F 83% 29.76 in 10.0 mi Calm Calm - N/A   Clear
4:53 AM 46.9 °F 41.0 °F 80% 29.76 in 10.0 mi Calm Calm - N/A   Clear
5:53 AM 46.0 °F 42.1 °F 86% 29.76 in 10.0 mi Calm Calm - N/A Fog Shallow Fog
6:53 AM 50.0 °F 45.0 °F 83% 29.77 in 10.0 mi Calm Calm - N/A   Partly Cloudy
7:53 AM 54.0 °F 46.9 °F 77% 29.78 in 10.0 mi Calm Calm - N/A   Clear
8:53 AM 54.0 °F 46.9 °F 77% 29.78 in 10.0 mi SSW 4.6 mph - N/A   Clear
9:53 AM 55.9 °F 48.9 °F 77% 29.79 in 10.0 mi SSW 6.9 mph - N/A   Partly Cloudy
10:53 AM 55.9 °F 48.0 °F 75% 29.79 in 10.0 mi South 3.5 mph - N/A   Partly Cloudy
11:53 AM 57.9 °F 48.0 °F 70% 29.78 in 10.0 mi South 6.9 mph - N/A   Partly Cloudy
12:53 PM 61.0 °F 48.0 °F 62% 29.79 in 10.0 mi SW 4.6 mph - N/A   Scattered Clouds
1:53 PM 64.0 °F 46.9 °F 54% 29.78 in 10.0 mi SW 6.9 mph - N/A   Scattered Clouds
2:53 PM 66.0 °F 46.0 °F 48% 29.79 in 10.0 mi SW 8.1 mph - N/A   Scattered Clouds
3:53 PM 62.1 °F 48.9 °F 62% 29.79 in 10.0 mi WSW 10.4 mph - N/A   Scattered Clouds
4:53 PM 60.1 °F 48.0 °F 64% 29.80 in 10.0 mi West 13.8 mph - N/A   Scattered Clouds
5:53 PM 61.0 °F 46.9 °F 60% 29.80 in 10.0 mi WSW 15.0 mph - N/A   Scattered Clouds
6:53 PM 61.0 °F 46.0 °F 58% 29.80 in 10.0 mi WSW 11.5 mph - N/A   Scattered Clouds
7:53 PM 60.1 °F 45.0 °F 57% 29.80 in 10.0 mi WSW 16.1 mph - N/A   Scattered Clouds
8:53 PM 61.0 °F 45.0 °F 56% 29.81 in 10.0 mi WSW 11.5 mph - N/A   Scattered Clouds
9:53 PM 59.0 °F 45.0 °F 60% 29.82 in 10.0 mi Calm Calm - N/A   Partly Cloudy
10:53 PM 55.9 °F 48.0 °F 75% 29.83 in 10.0 mi East 4.6 mph - N/A   Clear
11:53 PM 54.0 °F 48.0 °F 80% 29.84 in 10.0 mi Calm Calm - N/A   Clear